Weather in Gorokhov

Ukraine / Volyn Oblast     50°29′57″N   24°45′53″E
temp.,
°C
wind,
m/s
gust,
m/s
humid.,
%
clouds,
%
prec.,
mm/h
press.,
hPa
HPBL,
m
29 june, wed
wed2900:00+21se3467100 0.0 101844
03:00+20s2375100 0.0 101827
06:00+19s337198 0.0 101845
09:00+24ssw34595 0.0 1017307
12:00+29s33455 0.0 10171003
15:00+31s23365 0.0 10161909
18:00+31w12375 0.0 10142241
21:00+25ne335924 0.0 101425
30 june, thu
thu3000:00+22ese35683 0.0 101566
03:00+19e338592 0.0 101543
06:00+20ese22845 0.0 101415
09:00+24ene456745 0.0 1015393
12:00+29e455518 0.0 1015865
15:00+30e54495 0.0 10141554
18:00+29e555267 0.0 10141485
21:00+24ese497596 0.0 1014231
1 july, fri
fri100:00+21ese5137815 0.0 1016345
03:00+18e4119290 0.0 1016254
06:00+17ese410925 0.0 1017237
09:00+22ese7106959 0.0 1017562
12:00+26ese78517 0.0 10171179
15:00+28ese774164 0.0 10161465
18:00+28e674796 0.0 10161202
21:00+23ese6145988 0.0 1016417
2 july, sat
sat200:00+21ese615640 0.0 1017372
03:00+18se511685 0.0 1018233
06:00+17se411700 0.0 1018191
09:00+23s69520 0.0 1019557
12:00+26sw566518 0.0 1019977
15:00+26wsw556341 0.0 10201095
18:00+25w4468100 0.0 1020811
21:00+21wnw478278 0.0 1020428
3 july, sun
sun300:00+19w479574 0.1 1021217
03:00+18wnw3697100 0.1 1021209
06:00+17wnw249899 0.1 1021167
09:00+19wnw338799 0.2 1021514
12:00+21wnw3381100 0.6 1021698
15:00+23nw2272100 0.6 1020831
18:00+23n226835 0.0 1019788
21:00+21ene117913 0.0 101915